Regional Weather Roundup
Issued by NWS Jackson, KY

Home | Current Version | Previous Version | Graphics & Text | Print | Product List | Glossary On
Versions: 1 2 3 4 5 6 7 8 9 10 11 12 13 14 15 16 17 18 19 20 21 22 23 24 25 26 27 28 29 30 31 32 33 34 35 36 37 38 39 40 41 42 43 44 45 46 47 48 49 50
000
ASUS43 KJKL 040110
RWRJKL

EAST KENTUCKY HOURLY WEATHER ROUNDUP
NATIONAL WEATHER SERVICE JACKSON KY
900 PM EDT MON AUG 03 2015

NOTE: "FAIR" INDICATES FEW OR NO CLOUDS BELOW 12,000 FEET WITH
NO SIGNIFICANT WEATHER AND/OR OBSTRUCTIONS TO VISIBILITY.

* THESE REPORTS ARE NOT UNDER NWS QUALITY CONTROL AND MAY NOT
  REPORT WEATHER SUCH AS PRECIPITATION AND FOG.

KYZ079-080-083-085-087-088-110-112-115-119-120-040200
...EASTERN KENTUCKY...

CITY           SKY/WX    TMP DP  RH WIND       PRES   REMARKS
JACKSON        CLEAR     80  69  69 VRB5      29.91F
LONDON         CLEAR     82  67  60 S6        29.92F
SOMERSET*      PTCLDY    81  68  65 SW3       29.92F
MONTICELLO*    CLEAR     81  73  76 CALM      29.95S
MIDDLESBORO*   CLEAR     77  71  81 CALM      29.96R
HAZARD APT*    CLEAR     81  68  65 S6        29.92F
PIKEVILLE APT* CLEAR     79  66  65 CALM      29.94S
BIG SANDY*     PTCLDY    81  68  64 CALM      29.91S
MOREHEAD APT*    N/A    N/A N/A N/A MISG        N/A
$$

KYZ035-036-041-042-044-050-067-078-099-040200
...CENTRAL KENTUCKY...

CITY           SKY/WX    TMP DP  RH WIND       PRES   REMARKS
MT STERLING*   LGT RAIN  81  70  69 CALM      29.89R
FLEMING/MASON* LGT RAIN  66  61  82 SW5       29.91R
DANVILLE*      PTCLDY    81  72  74 SW5       29.90F
RICHMOND*      PTCLDY    81  70  69 SW8       29.88F
LEXINGTON      PTCLDY    81  69  67 SW10      29.86F
FRANKFORT      PTCLDY    82  68  62 SW7       29.85F
$$

KYZ091>093-OHZ055-061-077-WVZ005-015-034-035-042-040200
...SOUTHERN OHIO/WEST VIRGINIA...

CITY           SKY/WX    TMP DP  RH WIND       PRES   REMARKS
COVINGTON      MOCLDY    71  66  84 NE7       29.87S
COLUMBUS       PTCLDY    78  62  57 W9        29.83S
DAYTON         PTCLDY    69  65  86 SW8       29.87S
WILMINGTON     MOCLDY    71  60  68 NW7       29.87S
HUNTINGTON     CLOUDY    80  69  69 S3        29.86S
CHARLESTON     MOCLDY    79  67  66 CALM      29.88F
PINEVILLE*     CLEAR     71  69  93 MISG      30.00F
BECKLEY        CLEAR     72  61  68 S3        29.99F
BLUEFIELD      CLEAR     75  59  57 SW3       30.04S
$$

VAZ002-007-008-TNZ017-027-036-066-071-040200
...SOUTHWEST VIRGINIA/EAST TENNESSEE...

CITY           SKY/WX    TMP DP  RH WIND       PRES   REMARKS
WISE*          CLEAR     75  59  57 S6        30.04F
ABINGDON*      CLEAR     76  59  56 CALM      30.01F
BRISTOL        PTCLDY    80  58  46 W5        29.98S
KNOXVILLE      PTCLDY    84  60  44 W5        29.94S
OAK RIDGE      CLEAR     84  66  54 SW3       29.96S
CROSSVILLE     PTCLDY    76  68  76 CALM      30.01S
NASHVILLE      MOCLDY    88  66  48 W6        29.92S HX  90
$$

...KEY TO REMARKS...
VSB - VISIBILITY IN MILES
WCI - WIND CHILL INDEX
HX  - HEAT INDEX

$$



USA.gov is the U.S. government's official web portal to all federal, state and local government web resources and services.